Regional Weather Roundup
Issued by NWS Albany, NY

Home | Current Version | Previous Version | Text Only | Print | Product List | Glossary Off
Versions: 1 2 3 4 5 6 7 8 9 10 11 12 13 14 15 16 17 18 19 20 21 22 23 24 25 26 27 28 29 30 31 32 33 34 35 36 37 38 39 40 41 42 43 44 45 46 47 48 49 50

000
ASUS41 KALY 271410
RWRALY

NEW YORK STATE HOURLY WEATHER ROUNDUP
NATIONAL WEATHER SERVICE ALBANY NY
900 AM EST THU NOV 27 2014

NOTE: "FAIR" INDICATES FEW OR NO CLOUDS BELOW 12,000 FEET WITH NO
SIGNIFICANT WEATHER AND/OR NO OBSTRUCTIONS TO VISIBILITY.

NYZ032-033-038>043-046>054-057>066-NYZ062>081-271500-
EAST


CITY           SKY/WX    TMP DP  RH WIND       PRES   REMARKS
ALBANY         CLOUDY    31  26  82 NW8       30.01R WCI  23
GLENS FALLS    CLOUDY    30  22  72 N13       30.00R WCI  20
POUGHKEEPSIE   CLOUDY    30  28  92 CALM      30.00R
NEWBURGH       CLOUDY    32  32 100 CALM      30.00R
MONTGOMERY     MIX PCPN  32  30  92 CALM      29.98R
WHITE PLAINS   CLOUDY    33  27  78 N8        29.96R WCI  26
ISLIP          PTSUNNY   37  30  75 N10       29.96R WCI  30
NEW YORK CITY  CLOUDY    37  31  78 NW7       29.99R WCI  32
CENTRAL PARK   CLOUDY    37  30  75 VRB5      30.01R WCI  33
$$

NYZ005>009-017-018-044>046-055-056-271500-
CENTRAL


CITY           SKY/WX    TMP DP  RH WIND       PRES   REMARKS
FULTON         LGT SNOW  28  24  85 NE5       30.03R FOG     WCI  23
SYRACUSE       LGT SNOW  28  26  92 NW5       30.03S FOG     WCI  23
ROME           CLOUDY    27  26  96 CALM      30.02S
ELMIRA         LGT SNOW  30  26  85 SW5       30.02R FOG     WCI  25
BINGHAMTON     LGT SNOW  34  25  69 NW5       29.95S WCI  30
MONTICELLO     CLOUDY    28  27  93 W7        29.95R WCI  21
$$

NYZ026>034-041>043-271500-
NORTH


CITY           SKY/WX    TMP DP  RH WIND       PRES   REMARKS
WATERTOWN      CLOUDY    29  19  66 N6        30.05R WCI  23
FORT DRUM      NOT AVBL
MASSENA        CLOUDY    29  19  66 N7        30.06R WCI  22
SARANAC LAKE     N/A     24  20  84 CALM      29.92R FOG
PLATTSBURGH    CLOUDY    28  24  85 NW8       30.02R WCI  20
$$

NYZ001>004-010>016-019>021-271500-
WEST


CITY           SKY/WX    TMP DP  RH WIND       PRES   REMARKS
NIAGARA FALLS  FLURRIES  30  21  69 SW5       30.06R WCI  25
BUFFALO        CLOUDY    29  22  75 SW3       30.05R
DUNKIRK        CLOUDY    31  24  75 CALM      30.06R
JAMESTOWN      CLOUDY    27  21  80 CALM      30.01R
WELLSVILLE     CLOUDY    24  18  77 NW3       29.98R
ROCHESTER      FLURRIES  28  25  88 CALM      30.05S
PENN YAN       CLOUDY    28  24  85 W5        30.02S WCI  23
$$

             KEY
       WCI = WIND CHILL INDEX
       VSB = VISIBILITY
       HX  = HEAT INDEX
$$


USA.gov is the U.S. government's official web portal to all federal, state and local government web resources and services.